Regional Weather Roundup
Issued by NWS Charleston, WV

Home | Current Version | Previous Version | Text Only | Print | Product List | Glossary Off
Versions: 1 2 3 4 5 6 7 8 9 10 11 12 13 14 15 16 17 18 19 20 21 22 23 24 25 26 27 28 29 30 31 32 33 34 35 36 37 38 39 40 41 42 43 44 45 46 47 48 49 50

000
ASUS41 KRLX 290210
RWRRLX
West Virginia Regional Weather Roundup
National Weather Service Charleston WV
1000 PM EDT MON JUL 28 2014

Note: "fair" indicates few or no clouds below 12,000 feet with no
significant weather and/or obstructions to visibility.

WVZ003-290300-
Northern Panhandle of West Virginia

CITY           SKY/WX    TMP DP  RH WIND       PRES   REMARKS
WHEELING       PTCLDY    59  52  77 NW6       29.96R
$$

WVZ009-290300-
Northwest West Virginia

CITY           SKY/WX    TMP DP  RH WIND       PRES   REMARKS
PARKERSBURG    CLEAR    N/A N/A N/A CALM      29.98R
$$

WVZ006-290300-
Western West Virginia

CITY           SKY/WX    TMP DP  RH WIND       PRES   REMARKS
HUNTINGTON     LGT RAIN  63  61  93 SW6       29.96R
$$

WVZ015-290300-
West Central West Virginia

CITY           SKY/WX    TMP DP  RH WIND       PRES   REMARKS
CHARLESTON     MOCLDY    66  65  96 CALM      29.96R
$$

WVZ031-290300-
North Central West Virginia

CITY           SKY/WX    TMP DP  RH WIND       PRES   REMARKS
CLARKSBURG     PTCLDY    59  55  87 CALM      29.96R
MORGANTOWN     CLEAR     60  53  77 CALM      29.96R
$$

WVZ035-042-045-290300-
South Central West Virginia

CITY           SKY/WX    TMP DP  RH WIND       PRES   REMARKS
BECKLEY        CLOUDY    60  56  86 CALM      30.01R
BLUEFIELD      CLOUDY    62  55  77 NW7       30.03R
LEWISBURG      CLOUDY    64  54  70 NW6       29.99R
$$

WVZ047-290300-
Northern Mountains of West Virginia

CITY           SKY/WX    TMP DP  RH WIND       PRES   REMARKS
ELKINS         CLOUDY    59  55  87 CALM      29.99R
$$

WVZ052-290300-
Eastern Panhandle of West Virginia

CITY           SKY/WX    TMP DP  RH WIND       PRES   REMARKS
MARTINSBURG    CLOUDY    69  56  62 NW10      29.87R
PETERSBURG     MOCLDY    64  50  61 E3        29.94R
$$



USA.gov is the U.S. government's official web portal to all federal, state and local government web resources and services.